Flag for U.S.A. Weather past 2 weeks in Wichita, Kansas, U.S.A.

Now
81 °F

Passing clouds.


Feels Like: 84 °F
Forecast: 77 / 98 °F
Wind: 13 mph from South

Location: Wichita Mid-Continent Airport

Current Time: Aug 22, 2014 at 3:12:49 AM

Latest Report: Aug 22, 2014 at 2:53 AM


Visibility: 10 mi

Pressure: 29.85 "Hg

Humidity: 67%

Dew point: 69 °F

Location of WichitaLocation

Historic Weather in Wichita — Graph

°F

Wichita temperature yesterday

Maximum temperature yesterday: 98 °F (at 2:53 PM)
Minimum temperature yesterday: 76 °F (at 5:53 AM)
Average temperature yesterday: 87 °F

Past Weeks' High & Low Weather Summary

 TemperatureHumidityPressure
High98 °F (Aug 21, 2:53 PM)97% (Aug 10, 3:53 AM)30.16 "Hg (Aug 10, 3:53 AM)
Low60 °F (Aug 12, 5:53 AM)31% (Aug 11, 4:53 PM)29.73 "Hg (Aug 19, 5:53 PM)
Average80 °F63%29.91 "Hg
* Reported Aug 7 1:53 AM — Aug 22 1:53 AM, Wichita, Weather by CustomWeather, © 2014

Note: Actual official high and low records may vary slightly from our data, if they occured in-between our weather recording intervals... More about our weather records

Advertising

Wichita weather history for previous 24 hours

 ConditionsComfort  
Time TempWeatherWind HumidityBarometerVisibility
1:53 AM
Aug 22
82 °FPassing clouds.14 mph67%29.86 "Hg10 mi
12:53 AM83 °FPassing clouds.17 mph65%29.87 "Hg10 mi
11:53 PM
Aug 21
85 °FPassing clouds.20 mph61%29.85 "Hg10 mi
10:53 PM85 °FClear.17 mph61%29.84 "Hg10 mi
9:53 PM86 °FPassing clouds.16 mph57%29.85 "Hg10 mi
8:53 PM89 °FPassing clouds.15 mph50%29.82 "Hg10 mi
7:53 PM91 °FSunny.20 mph45%29.80 "Hg10 mi
6:53 PM94 °FSunny.20 mph41%29.79 "Hg10 mi
5:53 PM97 °FPassing clouds.21 mph37%29.79 "Hg10 mi
4:53 PM98 °FPassing clouds.24 mph35%29.79 "Hg10 mi
3:53 PM98 °FPassing clouds.20 mph38%29.80 "Hg10 mi
2:53 PM98 °FPassing clouds.23 mph35%29.81 "Hg10 mi
1:53 PM97 °FSunny.22 mph36%29.83 "Hg10 mi
12:53 PM95 °FSunny.22 mph40%29.84 "Hg10 mi
11:53 AM92 °FSunny.23 mph43%29.85 "Hg10 mi
10:53 AM90 °FSunny.17 mph47%29.86 "Hg10 mi
9:53 AM85 °FSunny.20 mph55%29.86 "Hg10 mi
8:53 AM82 °FPassing clouds.16 mph63%29.86 "Hg10 mi
7:53 AM77 °FPassing clouds.15 mph74%29.86 "Hg10 mi
6:53 AM76 °FPassing clouds.13 mph77%29.84 "Hg10 mi
5:53 AM76 °FPassing clouds.15 mph74%29.83 "Hg10 mi
4:53 AM77 °FPassing clouds.14 mph71%29.82 "Hg10 mi
3:53 AM78 °FPassing clouds.15 mph69%29.81 "Hg10 mi
Weather by CustomWeather, © 2014

See weather overviewHow to use our weather pages